Flag for United Kingdom Weather past 2 weeks in Inverness, Scotland, United Kingdom

Now
32 °F

Scattered showers. Partly cloudy.


Feels Like: 20 °F
Forecast: 31 / 37 °F
Wind: 21 mph from Southwest

Location: Inverness / Dalcross

Current Time: Jan 29, 2015 at 5:26:54 AM

Latest Report: Jan 29, 2015 at 4:50 AM


Visibility: N/A

Pressure: 28.80 "Hg

Humidity: 100%

Dew point: 32 °F

Location of InvernessLocation

Historic Weather in Inverness — Graph

°F

Inverness temperature yesterday

Maximum temperature yesterday: 46 °F (at 12:20 AM)
Minimum temperature yesterday: 30 °F (at 9:20 PM)
Average temperature yesterday: 36 °F

Past Weeks' High & Low Weather Summary

 TemperatureHumidityPressure
High52 °F (Jan 25, 2:50 PM)100% (Jan 16, 5:20 PM)30.15 "Hg (Jan 16, 5:20 PM)
Low19 °F (Jan 22, 5:20 AM)65% (Jan 20, 11:50 AM)28.15 "Hg (Jan 15, 1:50 PM)
Average36 °F84%29.62 "Hg
* Reported Jan 14 4:20 AM — Jan 29 4:20 AM, Inverness, Weather by CustomWeather, © 2014

Note: Actual official high and low records may vary slightly from our data, if they occured in-between our weather recording intervals... More about our weather records

Advertising

Inverness weather history for previous 24 hours

 ConditionsComfort  
Time TempWeatherWind HumidityBarometerVisibility
4:20 AM
Jan 29
32 °FSnow showers. Partly cloudy.16 mph93%28.80 "Hg2 mi
3:50 AM32 °FPartly cloudy.16 mph93%28.82 "HgN/A
3:20 AM32 °FPartly cloudy.13 mph87%28.82 "HgN/A
2:50 AM32 °FPartly cloudy.15 mph93%28.85 "HgN/A
2:20 AM30 °FChilly.13 mph93%28.85 "HgN/A
1:50 AM30 °FChilly.14 mph93%28.88 "HgN/A
1:20 AM30 °FPassing clouds.13 mph93%28.88 "HgN/A
12:50 AM30 °FChilly.14 mph93%28.91 "HgN/A
12:20 AM30 °FPassing clouds.15 mph86%28.91 "HgN/A
11:50 PM
Jan 28
30 °FChilly.14 mph93%28.91 "HgN/A
11:20 PM30 °FPassing clouds.15 mph93%28.94 "HgN/A
10:50 PM30 °FPassing clouds.14 mph93%28.94 "HgN/A
10:20 PM30 °FPassing clouds.18 mph93%28.97 "HgN/A
9:50 PM30 °FScattered showers. Passing clouds.17 mph93%28.94 "HgN/A
9:20 PM30 °FSnow flurries. Passing clouds.21 mph93%28.97 "HgN/A
8:50 PM32 °FSnow flurries. Passing clouds.22 mph87%28.97 "Hg5 mi
8:20 PM32 °FPassing clouds.20 mph87%28.97 "HgN/A
7:50 PM32 °FPassing clouds.16 mph87%29.00 "HgN/A
7:20 PM32 °FPassing clouds.16 mph87%29.00 "HgN/A
6:50 PM32 °FScattered showers. Passing clouds.14 mph87%29.03 "HgN/A
6:20 PM32 °FScattered showers. Passing clouds.15 mph93%29.03 "HgN/A
5:50 PM34 °FSnow flurries. Passing clouds.20 mph87%29.03 "Hg5 mi
5:20 PM34 °FScattered showers. Passing clouds.18 mph87%29.03 "HgN/A
4:50 PM34 °FScattered showers. Passing clouds.15 mph81%29.06 "HgN/A
4:20 PM34 °FScattered showers. Scattered clouds.17 mph87%29.06 "HgN/A
3:50 PM36 °FMixture of precip. Scattered clouds.22 mph81%29.06 "HgN/A
3:20 PM34 °FScattered showers. Scattered clouds.17 mph87%29.06 "HgN/A
2:50 PM36 °FSnow flurries. Scattered clouds.23 mph81%29.06 "HgN/A
2:20 PM34 °FScattered showers. Scattered clouds.18 mph93%29.06 "HgN/A
1:50 PM34 °FScattered showers. Passing clouds.22 mph93%29.06 "HgN/A
1:20 PM34 °FSnow flurries. Partly sunny.21 mph93%29.06 "Hg4 mi
12:50 PM34 °FScattered showers. Broken clouds.18 mph93%29.06 "HgN/A
12:20 PM34 °FScattered clouds.20 mph93%29.03 "HgN/A
11:50 AM32 °FScattered clouds.21 mph100%29.03 "HgN/A
11:20 AM32 °FSnow showers. Low clouds.24 mph93%29.06 "Hg1 mi
10:50 AM34 °FScattered showers. Scattered clouds.17 mph93%29.06 "HgN/A
10:20 AM34 °FSnow showers. Partly sunny.17 mph93%29.06 "Hg3 mi
9:50 AM34 °FSnow. Partly sunny.29 mph93%29.06 "Hg5 mi
9:20 AM36 °FSprinkles. Broken clouds.20 mph87%29.06 "HgN/A
8:50 AM36 °FScattered showers. Broken clouds.14 mph93%29.06 "HgN/A
8:20 AM36 °FSprinkles. Passing clouds.24 mph93%29.09 "HgN/A
7:50 AM36 °FSprinkles. Passing clouds.18 mph93%29.06 "HgN/A
7:20 AM36 °FRain showers. Passing clouds.15 mph93%29.09 "HgN/A
6:50 AM39 °FRain showers. Passing clouds.23 mph87%29.09 "HgN/A
6:20 AM39 °FRain showers. Passing clouds.18 mph87%29.09 "HgN/A
5:50 AM39 °FRain showers. Passing clouds.16 mph93%29.12 "HgN/A
5:20 AM43 °FRain showers. Partly cloudy.10 mph87%29.12 "HgN/A
Weather by CustomWeather, © 2014

See weather overviewHow to use our weather pages